Regional Weather Roundup
Issued by NWS

Home | Current Version | Previous Version | Graphics & Text | Print | Product List | Glossary On
Versions: 1 2 3 4 5 6 7 8 9 10 11 12 13 14 15 16 17 18 19 20 21 22 23 24 25 26 27 28 29 30 31 32 33 34 35 36 37 38 39 40 41 42 43 44 45 46 47 48 49 50
511
ASUS43 KBIS 162010
RWRND

NORTH DAKOTA REGIONAL WEATHER ROUNDUP
NATIONAL WEATHER SERVICE BISMARCK ND
300 PM CDT MON OCT 16 2017

NOTE: "FAIR" INDICATES FEW OR NO CLOUDS BELOW 12,000 FEET WITH NO
SIGNIFICANT WEATHER AND/OR OBSTRUCTIONS TO VISIBILITY.


NDZ001>003-009>011-017-162100-
NORTHWEST NORTH DAKOTA

CITY           SKY/WX    TMP DP  RH WIND       PRES   REMARKS
WILLISTON      SUNNY     69  33  26 W17G25    29.93S
MINOT          SUNNY     69  33  26 W17G26    29.87S
MINOT AFB      SUNNY     67  34  29 NW20G25   29.85S
$$

NDZ018>021-031>035-040>046-162100-
SOUTHWEST NORTH DAKOTA

CITY           SKY/WX    TMP DP  RH WIND       PRES   REMARKS
BISMARCK       SUNNY     73  34  23 W23       29.92F
DICKINSON      SUNNY     68  30  24 W22       29.96F
GARRISON         N/A     67  33  28 W23G35    29.90F
HETTINGER ARPT CLOUDY    69  31  24 W17       30.03F
$$

NDZ004>008-012>016-024-026-027-054-162100-
NORTHEAST NORTH DAKOTA

CITY           SKY/WX    TMP DP  RH WIND       PRES   REMARKS
GRAND FORKS    MOSUNNY   72  37  28 W13       29.82F
GRND FRKS AFB  SUNNY     70  35  28 W17G24    29.82F
DEVILS LAKE    SUNNY     66  37  34 W22       29.85F
$$

NDZ022-023-025-028>030-036>039-047>053-162100-
SOUTHEAST NORTH DAKOTA

CITY           SKY/WX    TMP DP  RH WIND       PRES   REMARKS
FARGO          SUNNY     70  36  28 SW23G37   29.87F
JAMESTOWN      SUNNY     69  35  28 W16G25    29.88F
$$





USA.gov is the U.S. government's official web portal to all federal, state and local government web resources and services.